sat.trackr.live / text

‹ back to catalog

RADUGA-1M 3

NORAD 39375 · 2013-062A

PAYLOAD ACTIVE UNKNOWN

§ Identity

Operator
Country
CIS
Launch date
2013-11-11
Launch site
TYMSC
Launch vehicle
Mass (kg)
RCS (m²)
63.10

Purposes: comms

External: N2YO · Heavens-Above · Gunter

§ Orbital elements

Epoch: 2026-05-25T00:29:15.836352Z

Period
1,436.10 min
Inclination
5.9018°
Eccentricity
0.0001428
Mean motion
1.00271515 rev/d
Perigee alt
35,780.6 km
Apogee alt
35,792.7 km
Semi-major
42,164.8 km
B*
0.0000e+0
RAAN
72.6442°
Arg perigee
267.9368°
Mean anomaly
304.3195°
Rev number
4,587

§ Raw data

RADUGA-1M 31 39375U 13062A   26145.02032218  .00000151  00000+0  00000+0 0  99902 39375   5.9018  72.6442 0001428 267.9368 304.3195  1.00271515 45874

JSON: /api/v1/satellites/39375 · /tle

For live sub-satellite position, see the globe view (requires WebGL).

§ Visibility from observer

Set your observer location to see the next 7 days of passes ≥ 10°. The values pass through the URL so the page stays shareable.

No JS? Fill the form by hand. The geolocation button needs JavaScript.